www.pogodaiklimat.ru

Погода и климат >> Архив погоды >> Австралия >> Западная Австралия >> Кунунарра


ПОГОДА в Кунунарре

  • Прогноз погоды в Кунунарре
  • Монитор погоды в Кунунарре

АРХИВ ПОГОДЫ в Кунунарре

Время (UTC), дата Ветер
(напр.,м/с)
 
Видим.   Явления Облачность Т
(С)
Тd
(С)
f
(%)
Тe
(С)
Тes
(С)
Комфортность P
(гПа)
Po
(гПа)
Тmin
(С)
Tmax
(С)
R
(мм)
R24
(мм)
S
(см)
04 10.07 ЮВ 5 н/о н/о +30.0 +7.2 24 +29 +29 жарко 1016.3 1011.1
06 10.07 ЮВ 4 н/о н/о +30.6 +5.8 21 +29 +29 жарко 1014.4 1009.2
07 10.07 Ю 4 н/о н/о +30.6 +5.8 21 +29 +29 жарко 1014.3 1009.1
09 10.07 Ю 3 н/о н/о +27.7 +7.5 28 +27 +27 жарко 1015.2 1010.0
10 10.07 ЮВ 2 н/о н/о +22.3 +9.5 44 +24 +24 комфорт 1015.9 1010.7
12 10.07 ЮВ 2 н/о н/о +18.3 +8.8 54 +19 +19 1017.2 1012.0
13 10.07 штиль 0 н/о н/о +17.4 +9.6 60 +17 +17 1017.5 1012.3 +31.5
15 10.07 В 2 н/о н/о +15.4 +8.9 65 +16 +16 1017.4 1012.2
16 10.07 ЮВ 3 н/о н/о +18.9 +8.8 52 +20 +20 1017.4 1012.2
18 10.07 ЮВ 2 н/о н/о +15.6 +10.8 73 +16 +16 1017.4 1012.2
19 10.07 Ю 3 н/о н/о +18.2 +8.7 54 +19 +19 1017.5 1012.3
21 10.07 штиль 0 н/о н/о +14.9 +6.2 56 +15 +15 1018.7 1013.5
22 10.07 штиль 0 н/о н/о +12.5 +7.2 70 +12 +12 1019.6 1014.4
00 11.07 ЮВ 2 н/о н/о +23.6 +4.0 28 +23 +23 комфорт 1020.6 1015.4
01 11.07 ЮВ 5 н/о н/о +26.8 +0.5 18 +25 +25 комфорт 1020.5 1015.3
03 11.07 ЮВ 6 н/о н/о +29.1 +2.4 18 +27 +27 жарко 1019.1 1013.9
04 11.07 ЮВ 5 н/о н/о +29.8 +2.9 18 +28 +28 жарко 1017.8 1012.6
06 11.07 ЮВ 5 н/о н/о +30.0 +2.3 17 +28 +28 жарко 1015.7 1010.5
07 11.07 ЮВ 4 н/о н/о +30.5 +2.7 17 +28 +28 жарко 1015.4 1010.2
09 11.07 Ю 3 н/о н/о +27.3 +4.4 23 +26 +26 жарко 1016.4 1011.2
10 11.07 ЮВ 3 н/о н/о +25.1 +4.3 26 +24 +24 комфорт 1017.3 1012.1
12 11.07 штиль 0 н/о н/о +17.3 +7.1 51 +17 +17 1019.0 1013.8
13 11.07 штиль 0 н/о н/о +16.2 +6.9 54 +16 +16 1019.2 1014.0
15 11.07 Ю 1 н/о н/о +15.1 +9.9 71 +16 +16 1018.8 1013.6
16 11.07 Ю 1 н/о н/о +15.8 +11.0 73 +16 +16 1018.9 1013.7
18 11.07 Ю 2 н/о н/о +14.1 +9.1 72 +14 +14 1018.1 1012.9
19 11.07 ЮВ 2 н/о н/о +13.2 +8.5 73 +13 +13 1018.2 1013.0
21 11.07 штиль 0 н/о н/о +12.7 +8.6 76 +12 +12 1018.3 1013.1
22 11.07 Ю 2 н/о н/о +14.2 +8.8 70 +14 +14 1018.7 1013.5
00 12.07 ЮВ 6 н/о н/о +25.7 +5.3 27 +25 +25 комфорт 1019.5 1014.3
01 12.07 ЮВ 6 н/о н/о +27.1 +6.5 27 +26 +26 жарко 1019.5 1014.3 +12.4
03 12.07 В 6 н/о н/о +30.2 +9.1 27 +30 +30 жарко 1017.6 1012.4
04 12.07 В 5 н/о н/о +30.6 +8.3 25 +30 +30 жарко 1016.2 1011.0
06 12.07 ЮВ 4 н/о н/о +31.1 +8.2 24 +30 +30 жарко 1014.4 1009.2
07 12.07 ЮВ 4 н/о н/о +31.0 +7.5 23 +30 +30 жарко 1014.1 1008.9
09 12.07 ЮВ 4 н/о н/о +28.7 +6.7 25 +28 +28 жарко 1015.2 1010.0
10 12.07 В 3 н/о н/о +24.9 +7.1 32 +25 +25 комфорт 1016.1 1010.9
12 12.07 штиль 0 н/о н/о +18.7 +8.7 52 +19 +19 1017.6 1012.4
13 12.07 штиль 0 н/о н/о +16.8 +8.5 58 +17 +17 1017.8 1012.6 +32.4
15 12.07 ЮВ 1 н/о н/о +15.5 +9.4 67 +17 +17 1018.0 1012.8
16 12.07 ЮВ 2 н/о н/о +14.9 +8.2 64 +15 +15 1018.1 1012.9
18 12.07 Ю 4 н/о н/о +21.8 +3.5 30 +22 +22 комфорт 1017.7 1012.5
19 12.07 ЮВ 4 н/о 1/0
[]
+23.1 +3.1 27 +23 +23 комфорт 1017.8 1012.6
21 12.07 З 2 н/о н/о +14.7 +5.2 53 +15 +15 1018.8 1013.6
22 12.07 Ю 3 н/о н/о +19.4 +2.7 33 +20 +20 1019.2 1014.0
00 13.07 ЮВ 7 н/о н/о +25.2 +0.7 20 +24 +24 комфорт 1020.1 1014.9
01 13.07 В 9 н/о н/о +26.5 -0.5 17 +24 +24 комфорт 1020.0 1014.8 +14.2
03 13.07 ЮВ 9 н/о н/о +28.9 -0.3 15 +26 +26 жарко 1018.7 1013.5
04 13.07 В 7 н/о н/о +30.0 -1.4 13 +27 +27 жарко 1017.4 1012.2
06 13.07 ЮВ 6 н/о н/о +30.2 -0.2 14 +27 +27 жарко 1015.3 1010.1
07 13.07 Ю 5 н/о н/о +30.6 +0.1 14 +28 +28 жарко 1014.9 1009.7
09 13.07 ЮВ 4 н/о н/о +27.4 +1.8 19 +26 +26 жарко 1015.9 1010.7
10 13.07 ЮВ 3 н/о н/о +25.1 +1.9 22 +24 +24 комфорт 1016.5 1011.3
12 13.07 ЮВ 5 н/о н/о +25.2 -1.6 17 +23 +23 комфорт 1018.0 1012.8
13 13.07 ЮВ 4 н/о н/о +23.7 -2.0 18 +22 +22 комфорт 1018.3 1013.1 +31.2
15 13.07 ЮВ 3 н/о н/о +21.6 -1.0 22 +21 +21 комфорт 1018.2 1013.0
18 13.07 В 4 н/о н/о +19.5 -0.5 26 +20 +20 1017.9 1012.7
19 13.07 ЮВ 4 н/о н/о +20.2 -1.0 24 +20 +20 1017.9 1012.7
21 13.07 ЮВ 7 н/о н/о +20.8 +0.1 25 +21 +21 комфорт 1018.9 1013.7
22 13.07 ЮВ 7 н/о н/о +20.2 +0.6 27 +20 +20 1019.7 1014.5
00 14.07 ЮВ 6 н/о н/о +21.9 +1.6 26 +22 +22 комфорт 1021.2 1016.0
01 14.07 ЮВ 7 н/о н/о +23.2 +2.7 26 +23 +23 комфорт 1021.1 1015.9 +18.1
03 14.07 ЮВ 7 н/о н/о +24.7 +2.8 24 +24 +24 комфорт 1019.3 1014.1
04 14.07 ЮВ 6 н/о н/о +25.7 +2.4 22 +24 +24 комфорт 1018.1 1012.9
06 14.07 ЮВ 6 н/о н/о +26.6 +2.5 21 +25 +25 комфорт 1016.2 1011.0
07 14.07 ЮВ 6 н/о н/о +26.8 +2.7 21 +25 +25 комфорт 1015.8 1010.6
09 14.07 ЮВ 4 н/о н/о +24.5 +3.2 25 +24 +24 комфорт 1016.4 1011.2
10 14.07 ЮВ 4 н/о н/о +22.9 +3.4 28 +23 +23 комфорт 1017.3 1012.1
12 14.07 ЮВ 5 н/о н/о +22.8 +2.3 26 +22 +22 комфорт 1018.8 1013.6
13 14.07 ЮВ 6 н/о н/о +22.2 +1.8 26 +22 +22 комфорт 1019.2 1014.0 +27.9
15 14.07 ЮВ 6 н/о н/о +21.7 -0.9 22 +21 +21 комфорт 1019.4 1014.2
16 14.07 Ю 3 н/о н/о +19.8 -0.8 25 +20 +20 1019.3 1014.1
18 14.07 ЮВ 3 н/о н/о +18.6 -0.7 27 +19 +19 1018.8 1013.6
19 14.07 ЮВ 5 н/о н/о +18.3 -1.0 27 +18 +18 1018.8 1013.6
21 14.07 ЮВ 4 н/о н/о +17.5 -1.7 27 +17 +17 1019.6 1014.4
22 14.07 Ю 4 н/о н/о +15.6 -1.4 31 +15 +15 1020.2 1015.0
00 15.07 Ю 6 н/о н/о +18.5 -4.9 20 +18 +18 1021.3 1016.1
01 15.07 ЮВ 6 н/о н/о +19.8 -4.5 19 +19 +19 1021.2 1016.0 +15.0
03 15.07 ЮВ 6 н/о н/о +22.3 -3.1 18 +21 +21 комфорт 1019.5 1014.3
04 15.07 ЮВ 6 н/о н/о +23.4 -3.0 17 +22 +22 комфорт 1018.1 1012.9
06 15.07 ЮВ 5 н/о н/о +24.9 -2.6 16 +23 +23 комфорт 1015.2 1010.0
07 15.07 ЮВ 5 н/о н/о +25.5 -1.3 17 +24 +24 комфорт 1014.7 1009.5
09 15.07 ЮВ 4 н/о н/о +23.6 0.0 21 +22 +22 комфорт 1015.1 1009.9
10 15.07 ЮВ 3 н/о 9/0
[]
+22.5 +0.9 24 +22 +22 комфорт 1016.2 1011.0
12 15.07 Ю 2 н/о н/о +19.5 +1.0 29 +20 +20 1017.5 1012.3
13 15.07 ЮВ 4 н/о н/о +20.7 -1.1 23 +21 +21 комфорт 1018.1 1012.9 +26.1
15 15.07 ЮВ 5 н/о н/о +21.6 -5.3 16 +20 +20 1018.5 1013.3
16 15.07 Ю 4 н/о 3/0
[]
+20.4 -4.7 18 +20 +20 1018.5 1013.3
18 15.07 Ю 3 н/о н/о +17.6 -2.1 26 +18 +18 1017.8 1012.6
19 15.07 Ю 3 н/о н/о +18.1 -2.2 25 +18 +18 1017.4 1012.2
21 15.07 Ю 4 н/о н/о +17.9 -2.4 25 +18 +18 1017.9 1012.7
22 15.07 Ю 3 н/о 10/0
[]
+18.2 -2.7 24 +18 +18 1018.8 1013.6
00 16.07 ЮВ 6 н/о н/о +20.8 -5.9 16 +20 +20 1019.9 1014.7
01 16.07 ЮВ 6 н/о 9/0
[]
+22.5 -5.4 15 +21 +23 комфорт 1019.7 1014.5 +16.4
03 16.07 ЮВ 5 н/о н/о +24.4 -5.8 13 +22 +22 комфорт 1017.9 1012.7
04 16.07 Ю 6 н/о н/о +25.7 -5.8 12 +23 +23 комфорт 1016.7 1011.5
06 16.07 Ю 4 н/о н/о +27.2 -3.6 13 +24 +24 комфорт 1015.1 1009.9
07 16.07 Ю 5 н/о н/о +27.7 -2.2 14 +25 +25 комфорт 1014.8 1009.6
09 16.07 Ю 4 н/о н/о +25.0 -1.7 17 +23 +23 комфорт 1015.3 1010.1
10 16.07 Ю 3 н/о н/о +23.5 -1.4 19 +22 +22 комфорт 1016.0 1010.8
12 16.07 Ю 2 н/о н/о +21.4 +0.6 25 +21 +21 комфорт 1017.1 1011.9
13 16.07 Ю 2 н/о н/о +18.7 +1.7 32 +20 +20 1017.5 1012.3 +28.2
15 16.07 ЮВ 6 н/о н/о +22.8 -2.0 19 +22 +22 комфорт 1017.3 1012.1
16 16.07 ЮВ 4 н/о 1/0
[]
+21.9 -2.0 20 +21 +21 комфорт 1017.1 1011.9
18 16.07 Ю 3 н/о н/о +18.9 -0.5 27 +19 +19 1016.4 1011.2
19 16.07 Ю 3 н/о н/о +18.1 +0.3 30 +18 +18 1016.4 1011.2
21 16.07 ЮВ 3 н/о н/о +17.3 +0.5 32 +17 +17 1016.8 1011.6
22 16.07 ЮВ 1 н/о н/о +13.7 +3.2 49 +14 +14 1017.2 1012.0
00 17.07 ЮВ 4 н/о н/о +21.9 -2.0 20 +21 +21 комфорт 1018.3 1013.1
01 17.07 В 8 н/о н/о +23.5 -2.9 17 +22 +22 комфорт 1018.2 1013.0 +13.8

 

Местоположение метеостанции Кунунарра (Западная Австралия, Австралия): широта -15.78 долгота 128.71 высота над уровнем моря 44 м.

В архиве по умолчанию представлена погода в Кунунарре за последнюю неделю. Архивные данные за месяц целиком и за предыдущие месяцы, начиная с января 2011 года, Вы можете получить, выбрав интересующий диапазон дат из раскрывающегося списка и нажав кнопку "Ввод!".


*Определитесь, кто Вы:
робот инопланетянин человек

Внимание! Время в таблицах - всемирное. Для получения местного времени необходимо прибавить поправку, которая равна 8 ч.

Смотрите также архив погоды в соседних городах и на ближайших метеорологических станциях:

Погода в Уиндеме (Западная Австралия, Австралия) (68 км)
Погода в Аэропорту Аргайл (Западная Австралия, Австралия) (99 км)
Погода в Порт Китс (Северная территория, Австралия) (192 км)
Погода в Манбуллу Ксиро (Северная территория, Австралия) (242 км)
Погода в Виктория-Ривер (Северная территория, Австралия) (256 км)
Погода в Калумбуру (Западная Австралия, Австралия) (276 км)
Погода в Холс Крик (Западная Австралия, Австралия) (294 км)
Погода в Трускотте (Западная Австралия, Австралия) (314 км)
Погода на Маяке Кейп-Дон (Северная территория, Австралия) (343 км)
Погода на Базе ВВС Delamere Weapons Range (Северная территория, Австралия) (344 км)

Пояснения к столбцам:

Ветер - указаны скорость ветра в м/с - средняя за 10 мин, порывы в срок и между сроками (в фигурных скобках) и направление, откуда дует ветер: С - северный, СВ - северо-восточный, В - восточный, ЮВ - юго-восточный, Ю - южный, ЮЗ - юго-западный, З - западный, СЗ - северо-западный.
Видимость - горизонтальная дальность видимости в метрах или километрах. При видимости от 1 до 10 км при отсутствии осадков обычно наблюдается дымка, при ухудшении видимости до 1 км и менее - туман. В сухую погоду видимость может ухудшаться дымом, пылью или мглою.
Явления - указаны атмосферные явления, наблюдавшиеся в срок или в последний час перед сроком; фигурными скобками обозначены явления, наблюдавшиеся между сроками (за 1-3 часа до срока); квадратными скобками обозначены град или гололедные отложения с указанием их диаметра в мм.
Облачность - указаны через наклонную черту общая и нижняя облачность в баллах и высота нижней границы облаков в метрах; квадратными скобками обозначены формы облаков: Ci - перистые, Cs - перисто-слоистые, Cc - перисто-кучевые, Ac - высококучевые, As - высокослоистые, Sc - слоисто-кучевые, Ns - слоисто-дождевые, Cu - кучевые, Cb - кучево-дождевые. Подробнее классификацию облаков см. в Атласе облаков (PDF).
T - Температура воздуха - температура, измеренная на высоте 2 м над землей.
Td - Температура точки росы - температура, при понижении до которой содержащийся в воздухе водяной пар достигнет насыщения.
f - Относительная влажность воздуха - влажноcть воздуха, измеренная на высоте 2 м над землей.
Te - Эффективная температура - температура, которую ощущает одетый по сезону человек в тени. Характеристика душности погоды. При расчете учитывается влияние влажности воздуха и скорости ветра на теплоощущения человека.
Tes - Эффективная температура на солнце - температура, которую ощущает человек, с поправкой на солнечный нагрев. Характеристика знойности погоды. Зависит от высоты солнца над горизонтом, облачности и скорости ветра. Ночью, в пасмурную погоду, а также при ветре 12 м/с и более поправка равна нулю.
P - Атмосферное давление - приведенное к уровню моря атмосферное давление.
Po - Атмосферное давление - измеренное на уровне метеостанции атмосферное давление.
Tmin - Минимальная температура - минимум температуры воздуха на высоте 2 м над землей.
Tmax - Максимальная температура - максимум температуры воздуха на высоте 2 м над землей.
R - Количество осадков - Количество выпавших осадков за период времени, мм. При наведении курсора мыши на число - период времени, за который выпало указанное количество осадков.
R24 - Количество осадков - Количество выпавших осадков за 24 часа, мм.
S - Снежный покров - Высота снежного покрова, см. При наведении курсора мыши на число - состояние снежного покрова и степень покрытия местности в баллах.